Time,TemperatureF,DewpointF,PressureIn,WindDirection,WindDirectionDegrees,WindSpeedMPH,WindSpeedGustMPH,Humidity,HourlyPrecipIn,Conditions,Clouds,dailyrainin,SoftwareType,DateUTC
2014-01-25 00:05:00,15.6,5.6,30.26,SSE,157,2.7,-999.0,64,-99.99,,,0.00,Acu-Link.com,2014-01-25 05:05:00,
2014-01-25 00:20:00,16.0,5.0,30.25,South,180,3.7,-999.0,61,-99.99,,,0.00,Acu-Link.com,2014-01-25 05:20:00,
2014-01-25 00:35:00,16.9,5.1,30.24,West,270,5.8,-999.0,59,-99.99,,,0.00,Acu-Link.com,2014-01-25 05:35:00,
2014-01-25 00:50:00,17.2,4.2,30.24,South,180,6.3,-999.0,56,-99.99,,,0.00,Acu-Link.com,2014-01-25 05:50:00,
2014-01-25 01:05:00,17.2,3.8,30.24,SW,225,4.2,-999.0,55,-99.99,,,0.00,Acu-Link.com,2014-01-25 06:05:00,
2014-01-25 01:21:00,16.9,4.3,30.23,SW,225,4.2,-999.0,57,-99.99,,,0.00,Acu-Link.com,2014-01-25 06:21:00,
2014-01-25 01:36:00,16.9,4.7,30.22,SSE,157,2.7,-999.0,58,-99.99,,,0.00,Acu-Link.com,2014-01-25 06:36:00,
2014-01-25 01:51:00,16.7,4.9,30.21,South,180,1.7,-999.0,59,-99.99,,,0.00,Acu-Link.com,2014-01-25 06:51:00,
2014-01-25 02:06:00,16.2,4.8,30.20,South,180,2.7,-999.0,60,-99.99,,,0.00,Acu-Link.com,2014-01-25 07:06:00,
2014-01-25 02:21:00,16.0,5.0,30.19,South,180,3.7,-999.0,61,-99.99,,,0.00,Acu-Link.com,2014-01-25 07:21:00,
2014-01-25 02:37:00,15.6,4.6,30.18,SW,225,1.1,-999.0,61,-99.99,,,0.00,Acu-Link.com,2014-01-25 07:37:00,
2014-01-25 02:52:00,16.0,4.6,30.17,SSW,202,3.7,-999.0,60,-99.99,,,0.00,Acu-Link.com,2014-01-25 07:52:00,
2014-01-25 03:07:00,15.8,4.8,30.15,South,180,2.7,-999.0,61,-99.99,,,0.00,Acu-Link.com,2014-01-25 08:07:00,
2014-01-25 03:22:00,16.3,4.5,30.14,South,180,2.7,-999.0,59,-99.99,,,0.00,Acu-Link.com,2014-01-25 08:22:00,
2014-01-25 03:37:00,16.3,4.5,30.13,SSW,202,3.7,-999.0,59,-99.99,,,0.00,Acu-Link.com,2014-01-25 08:37:00,
2014-01-25 03:53:00,16.5,4.3,30.12,SSE,157,4.2,-999.0,58,-99.99,,,0.00,Acu-Link.com,2014-01-25 08:53:00,
2014-01-25 04:08:00,16.9,4.0,30.11,South,180,4.7,-999.0,56,-99.99,,,0.00,Acu-Link.com,2014-01-25 09:08:00,
2014-01-25 04:23:00,16.5,4.3,30.10,SSW,202,3.7,-999.0,58,-99.99,,,0.00,Acu-Link.com,2014-01-25 09:23:00,
2014-01-25 04:38:00,16.3,4.1,30.09,SSW,202,4.7,-999.0,58,-99.99,,,0.00,Acu-Link.com,2014-01-25 09:38:00,
2014-01-25 04:54:00,16.9,4.3,30.09,SSE,157,3.7,-999.0,57,-99.99,,,0.00,Acu-Link.com,2014-01-25 09:54:00,
2014-01-25 05:09:00,17.1,4.1,30.08,SSW,202,2.7,-999.0,56,-99.99,,,0.00,Acu-Link.com,2014-01-25 10:09:00,
2014-01-25 05:24:00,17.4,4.0,30.06,SSW,202,3.2,-999.0,55,-99.99,,,0.00,Acu-Link.com,2014-01-25 10:24:00,
2014-01-25 05:39:00,17.8,4.0,30.06,West,270,7.8,-999.0,54,-99.99,,,0.00,Acu-Link.com,2014-01-25 10:39:00,
2014-01-25 05:54:00,18.1,4.3,30.04,SSW,202,5.3,-999.0,54,-99.99,,,0.00,Acu-Link.com,2014-01-25 10:54:00,
2014-01-25 06:10:00,18.9,4.2,30.03,SW,225,5.8,-999.0,52,-99.99,,,0.00,Acu-Link.com,2014-01-25 11:10:00,
2014-01-25 06:25:00,19.4,4.3,30.02,South,180,3.7,-999.0,51,-99.99,,,0.00,Acu-Link.com,2014-01-25 11:25:00,
2014-01-25 06:40:00,19.9,3.9,30.02,WSW,247,4.7,-999.0,49,-99.99,,,0.00,Acu-Link.com,2014-01-25 11:40:00,
2014-01-25 06:56:00,20.3,3.8,30.02,South,180,6.3,-999.0,48,-99.99,,,0.00,Acu-Link.com,2014-01-25 11:56:00,
2014-01-25 07:11:00,20.3,3.3,30.02,WSW,247,4.2,-999.0,47,-99.99,,,0.00,Acu-Link.com,2014-01-25 12:11:00,
2014-01-25 07:26:00,20.8,4.2,30.02,SSW,202,5.8,-999.0,48,-99.99,,,0.00,Acu-Link.com,2014-01-25 12:26:00,
2014-01-25 07:41:00,21.7,4.1,30.01,WSW,247,3.2,-999.0,46,-99.99,,,0.00,Acu-Link.com,2014-01-25 12:41:00,
2014-01-25 07:57:00,22.8,3.7,30.01,West,270,7.8,-999.0,43,-99.99,,,0.00,Acu-Link.com,2014-01-25 12:57:00,
2014-01-25 08:12:00,23.9,4.2,30.00,WSW,247,6.8,-999.0,42,-99.99,,,0.00,Acu-Link.com,2014-01-25 13:12:00,
2014-01-25 08:27:00,24.8,3.9,29.99,South,180,13.5,-999.0,40,-99.99,,,0.00,Acu-Link.com,2014-01-25 13:27:00,
2014-01-25 08:43:00,25.9,4.9,29.99,SW,225,11.4,-999.0,40,-99.99,,,0.00,Acu-Link.com,2014-01-25 13:43:00,
2014-01-25 08:58:00,26.4,5.4,29.97,SSW,202,7.3,-999.0,40,-99.99,,,0.00,Acu-Link.com,2014-01-25 13:58:00,
2014-01-25 09:13:00,27.7,6.0,29.96,SSW,202,6.8,-999.0,39,-99.99,,,0.00,Acu-Link.com,2014-01-25 14:13:00,
2014-01-25 09:28:00,29.1,6.7,29.97,SSW,202,14.5,-999.0,38,-99.99,,,0.00,Acu-Link.com,2014-01-25 14:28:00,
2014-01-25 09:44:00,29.5,6.5,29.95,West,270,6.8,-999.0,37,-99.99,,,0.00,Acu-Link.com,2014-01-25 14:44:00,
2014-01-25 09:59:00,30.0,7.5,29.94,South,180,8.9,-999.0,38,-99.99,,,0.00,Acu-Link.com,2014-01-25 14:59:00,
2014-01-25 10:14:00,30.2,8.8,29.93,South,180,7.8,-999.0,40,-99.99,,,0.00,Acu-Link.com,2014-01-25 15:14:00,
2014-01-25 10:29:00,30.9,10.0,29.91,WSW,247,13.5,-999.0,41,-99.99,,,0.00,Acu-Link.com,2014-01-25 15:29:00,
2014-01-25 10:45:00,31.5,10.5,29.88,South,180,15.5,-999.0,41,-99.99,,,0.00,Acu-Link.com,2014-01-25 15:45:00,
2014-01-25 11:00:00,32.7,11.1,29.88,SSW,202,13.0,-999.0,40,-99.99,,,0.00,Acu-Link.com,2014-01-25 16:00:00,
2014-01-25 11:15:00,33.1,11.4,29.85,South,180,14.0,-999.0,40,-99.99,,,0.00,Acu-Link.com,2014-01-25 16:15:00,
2014-01-25 11:30:00,33.8,12.1,29.83,South,180,5.8,-999.0,40,-99.99,,,0.00,Acu-Link.com,2014-01-25 16:30:00,
2014-01-25 11:46:00,34.3,11.9,29.80,South,180,12.5,-999.0,39,-99.99,,,0.00,Acu-Link.com,2014-01-25 16:46:00,
2014-01-25 12:01:00,34.7,12.3,29.79,WSW,247,10.9,-999.0,39,-99.99,,,0.00,Acu-Link.com,2014-01-25 17:01:00,
2014-01-25 12:16:00,35.8,12.7,29.77,SSW,202,8.3,-999.0,38,-99.99,,,0.00,Acu-Link.com,2014-01-25 17:16:00,
2014-01-25 12:31:00,36.3,13.2,29.76,South,180,10.4,-999.0,38,-99.99,,,0.00,Acu-Link.com,2014-01-25 17:31:00,
2014-01-25 12:46:00,37.0,13.8,29.72,South,180,8.3,-999.0,38,-99.99,,,0.00,Acu-Link.com,2014-01-25 17:46:00,
2014-01-25 13:02:00,38.5,15.7,29.71,South,180,9.4,-999.0,39,-99.99,,,0.00,Acu-Link.com,2014-01-25 18:02:00,
2014-01-25 13:17:00,39.0,16.8,29.69,WSW,247,8.3,-999.0,40,-99.99,,,0.00,Acu-Link.com,2014-01-25 18:17:00,
2014-01-25 13:32:00,38.5,18.0,29.68,South,180,16.6,-999.0,43,-99.99,,,0.00,Acu-Link.com,2014-01-25 18:32:00,
2014-01-25 13:47:00,37.9,18.0,29.67,SW,225,8.3,-999.0,44,-99.99,,,0.00,Acu-Link.com,2014-01-25 18:47:00,
2014-01-25 14:02:00,39.0,19.0,29.65,South,180,13.5,-999.0,44,-99.99,,,0.00,Acu-Link.com,2014-01-25 19:02:00,
2014-01-25 14:18:00,40.3,19.1,29.64,West,270,6.8,-999.0,42,-99.99,,,0.00,Acu-Link.com,2014-01-25 19:18:00,
2014-01-25 14:33:00,39.9,18.1,29.63,SW,225,14.0,-999.0,41,-99.99,,,0.00,Acu-Link.com,2014-01-25 19:33:00,
2014-01-25 14:48:00,40.3,17.3,29.64,West,270,8.9,-999.0,39,-99.99,,,0.00,Acu-Link.com,2014-01-25 19:48:00,
2014-01-25 15:03:00,40.1,17.2,29.63,South,180,6.8,-999.0,39,-99.99,,,0.00,Acu-Link.com,2014-01-25 20:03:00,
2014-01-25 15:19:00,40.5,17.5,29.63,West,270,9.9,-999.0,39,-99.99,,,0.00,Acu-Link.com,2014-01-25 20:19:00,
2014-01-25 15:34:00,40.8,17.8,29.62,SW,225,6.3,-999.0,39,-99.99,,,0.00,Acu-Link.com,2014-01-25 20:34:00,
2014-01-25 15:49:00,41.7,18.0,29.62,SW,225,7.8,-999.0,38,-99.99,,,0.00,Acu-Link.com,2014-01-25 20:49:00,
2014-01-25 16:04:00,42.6,17.5,29.62,NNW,337,7.3,-999.0,36,-99.99,,,0.00,Acu-Link.com,2014-01-25 21:04:00,
2014-01-25 16:20:00,42.4,17.4,29.61,SSW,202,8.9,-999.0,36,-99.99,,,0.00,Acu-Link.com,2014-01-25 21:20:00,
2014-01-25 16:35:00,42.4,17.4,29.62,West,270,10.4,-999.0,36,-99.99,,,0.00,Acu-Link.com,2014-01-25 21:35:00,
2014-01-25 16:51:00,42.6,17.5,29.62,West,270,5.8,-999.0,36,-99.99,,,0.00,Acu-Link.com,2014-01-25 21:51:00,
2014-01-25 17:06:00,42.6,17.5,29.62,West,270,4.7,-999.0,36,-99.99,,,0.00,Acu-Link.com,2014-01-25 22:06:00,
2014-01-25 17:21:00,42.6,18.2,29.63,WSW,247,4.7,-999.0,37,-99.99,,,0.00,Acu-Link.com,2014-01-25 22:21:00,
2014-01-25 17:36:00,42.4,18.0,29.64,WSW,247,6.3,-999.0,37,-99.99,,,0.00,Acu-Link.com,2014-01-25 22:36:00,
2014-01-25 17:52:00,42.3,17.9,29.64,West,270,5.3,-999.0,37,-99.99,,,0.00,Acu-Link.com,2014-01-25 22:52:00,
2014-01-25 18:07:00,42.6,17.5,29.65,West,270,11.4,-999.0,36,-99.99,,,0.00,Acu-Link.com,2014-01-25 23:07:00,
2014-01-25 18:22:00,43.0,17.2,29.65,WSW,247,7.3,-999.0,35,-99.99,,,0.00,Acu-Link.com,2014-01-25 23:22:00,
2014-01-25 18:37:00,43.0,17.2,29.67,WSW,247,7.3,-999.0,35,-99.99,,,0.00,Acu-Link.com,2014-01-25 23:37:00,
2014-01-25 18:52:00,42.6,17.5,29.68,WNW,292,5.8,-999.0,36,-99.99,,,0.00,Acu-Link.com,2014-01-25 23:52:00,
2014-01-25 19:08:00,42.3,17.3,29.68,NNW,337,9.4,-999.0,36,-99.99,,,0.00,Acu-Link.com,2014-01-26 00:08:00,
2014-01-25 19:23:00,41.7,17.4,29.68,NNW,337,8.9,-999.0,37,-99.99,,,0.00,Acu-Link.com,2014-01-26 00:23:00,
2014-01-25 19:38:00,41.2,16.9,29.69,West,270,8.9,-999.0,37,-99.99,,,0.00,Acu-Link.com,2014-01-26 00:38:00,
2014-01-25 19:53:00,40.8,17.2,29.70,WNW,292,6.8,-999.0,38,-99.99,,,0.00,Acu-Link.com,2014-01-26 00:53:00,
2014-01-25 20:08:00,40.5,17.5,29.71,ESE,112,5.3,-999.0,39,-99.99,,,0.00,Acu-Link.com,2014-01-26 01:08:00,
2014-01-25 20:24:00,39.7,17.4,29.71,West,270,7.3,-999.0,40,-99.99,,,0.00,Acu-Link.com,2014-01-26 01:24:00,
2014-01-25 20:39:00,39.4,17.7,29.72,NW,315,5.8,-999.0,41,-99.99,,,0.00,Acu-Link.com,2014-01-26 01:39:00,
2014-01-25 20:54:00,39.4,17.7,29.72,West,270,6.3,-999.0,41,-99.99,,,0.00,Acu-Link.com,2014-01-26 01:54:00,
2014-01-25 21:09:00,38.8,17.7,29.72,West,270,3.7,-999.0,42,-99.99,,,0.00,Acu-Link.com,2014-01-26 02:09:00,
2014-01-25 21:25:00,38.3,17.8,29.73,SSW,202,3.2,-999.0,43,-99.99,,,0.00,Acu-Link.com,2014-01-26 02:25:00,
2014-01-25 21:40:00,37.8,17.9,29.74,WNW,292,4.7,-999.0,44,-99.99,,,0.00,Acu-Link.com,2014-01-26 02:40:00,
2014-01-25 21:55:00,37.8,18.4,29.74,WSW,247,3.2,-999.0,45,-99.99,,,0.00,Acu-Link.com,2014-01-26 02:55:00,
2014-01-25 22:10:00,37.4,18.5,29.74,West,270,5.8,-999.0,46,-99.99,,,0.00,Acu-Link.com,2014-01-26 03:10:00,
2014-01-25 22:25:00,36.9,18.1,29.74,South,180,2.2,-999.0,46,-99.99,,,0.00,Acu-Link.com,2014-01-26 03:25:00,
2014-01-25 22:41:00,36.5,18.2,29.75,West,270,4.7,-999.0,47,-99.99,,,0.00,Acu-Link.com,2014-01-26 03:41:00,
2014-01-25 22:56:00,36.1,18.3,29.75,West,270,6.3,-999.0,48,-99.99,,,0.00,Acu-Link.com,2014-01-26 03:56:00,
2014-01-25 23:11:00,36.0,18.7,29.76,WSW,247,3.2,-999.0,49,-99.99,,,0.00,Acu-Link.com,2014-01-26 04:11:00,
2014-01-25 23:26:00,35.8,19.0,29.76,South,180,4.7,-999.0,50,-99.99,,,0.00,Acu-Link.com,2014-01-26 04:26:00,
2014-01-25 23:41:00,35.8,19.0,29.76,SW,225,3.7,-999.0,50,-99.99,,,0.00,Acu-Link.com,2014-01-26 04:41:00,
2014-01-25 23:57:00,36.1,19.3,29.77,WNW,292,4.7,-999.0,50,-99.99,,,0.00,Acu-Link.com,2014-01-26 04:57:00,